Regional Weather Roundup
Issued by NWS

Home | Current Version | Previous Version | Graphics & Text | Print | Product List | Glossary On
Versions: 1 2 3 4 5 6 7 8 9 10 11 12 13 14 15 16 17 18 19 20 21 22 23 24 25 26 27 28 29 30 31 32 33 34 35 36 37 38 39 40 41 42 43 44 45 46 47 48 49 50
000
ASUS43 KFSD 201310
RWRSD

WEATHER ROUNDUP FOR SOUTH DAKOTA
NATIONAL WEATHER SERVICE SIOUX FALLS SD
800 AM CDT WED AUG 20 2014

NOTE: "FAIR" INDICATES FEW OR NO CLOUDS BELOW 12,000 FEET WITH NO
SIGNIFICANT WEATHER AND/OR OBSTRUCTIONS TO VISIBILITY.


SDZ001>005-009-010-012>017-201400-
NORTHWEST AND NORTH CENTRAL SOUTH DAKOTA

CITY           SKY/WX    TMP DP  RH WIND       PRES   REMARKS
BUFFALO          N/A     70  58  65 SE9       29.66R
FAITH            N/A     69  64  84 S14       29.72R
MOBRIDGE       PTSUNNY   66  63  90 CALM      29.69F
$$

SDZ012>016-024>037-041>051-057-063-072>074-201400-
SOUTHWEST AND SOUTH CENTRAL SOUTH DAKOTA

CITY           SKY/WX    TMP DP  RH WIND       PRES   REMARKS
RAPID CTY ARPT CLOUDY    65  59  81 NE5       29.74R
PIERRE         PTSUNNY   67  61  81 SE9       29.69R
CUSTER         LGT RAIN  67  46  47 W6        29.90R
ELLSWORTH AFB  CLOUDY    66  57  73 NW5       29.74R
PHILIP         PTSUNNY   69  65  86 E7        29.71R
PINE RIDGE     CLOUDY    68  58  70 SW6       29.78R
WINNER         FAIR      68  65  90 SE10      29.75R
$$

SDZ004>011-016>023-039-040-201400-
NORTHEAST SOUTH DAKOTA

CITY           SKY/WX    TMP DP  RH WIND       PRES   REMARKS
ABERDEEN       SUNNY     66  63  90 SE5       29.76R
WATERTOWN      PTSUNNY   66  61  84 SE9       29.79F
SISSETON         N/A     65  65 100 S3        29.79R
$$

SDZ017-020-022-023-036>040-048>070-201400-
SOUTHEAST SOUTH DAKOTA

CITY           SKY/WX    TMP DP  RH WIND       PRES   REMARKS
SIOUX FALLS    CLOUDY    69  66  90 SE9       29.80F
HURON          MOSUNNY   70  64  81 SE8       29.74R
CHAMBERLAIN    MOSUNNY   68  64  88 SE12      29.73S
MITCHELL       PTSUNNY   69  66  90 SE14      29.74F
YANKTON        CLOUDY    68  66  94 SE5       29.80R
$$

ABBREVIATIONS USED IN REMARKS
   TC - TEMPERATURE IN CELSIUS
  WCI - WIND CHILL INDEX
   HX - HEAT INDEX
  VSB - VISIBILITY



USA.gov is the U.S. government's official web portal to all federal, state and local government web resources and services.